EW6322 Weather Reports


Display with metric or nautical units.
time (UTC)temp
F
wind
direction
speed
MPH
gust
MPH
rain 1hr
in
rain 24hr
in
rain mn
in
humidity
%
barometer
mb
20260505225329 52 60 6.0 14.0 0.00 0.00 0.00 78 1006.2
20260505223829 52 22 6.0 16.0 0.00 0.00 0.00 77 1005.9
20260505222328 52 15 6.0 12.0 0.00 0.00 0.00 77 1005.9
20260505220829 53 71 8.0 15.0 0.00 0.00 0.00 76 1005.6
20260505215329 53 76 8.0 17.0 0.00 0.00 0.00 77 1005.5
20260505213829 53 10 6.0 15.0 0.00 0.00 0.00 78 1005.2
20260505212329 53 34 7.0 18.0 0.00 0.00 0.00 78 1005.4
20260505210828 54 352 8.0 17.0 0.00 0.00 0.00 77 1004.9
20260505205330 54 36 8.0 17.0 0.00 0.00 0.00 77 1004.0
20260505203829 54 22 7.0 17.0 0.00 0.00 0.00 80 1004.4
20260505203018 53 49 6.0 14.0 0.00 0.00 0.00 80 1004.7
20260505200829 53 39 7.0 17.0 0.00 0.00 0.00 81 1004.9
20260505195329 53 25 8.0 17.0 0.00 0.00 0.00 82 1004.2
20260505193829 54 86 8.0 17.0 0.00 0.00 0.00 83 1004.2
20260505192328 54 70 7.0 20.0 0.00 0.00 0.00 82 1004.3
20260505190828 55 15 7.0 17.0 0.00 0.00 0.00 81 1004.3
20260505190024 56 33 7.0 19.0 0.00 0.00 0.00 79 1003.7
20260505183829 56 56 8.0 22.0 0.00 0.00 0.00 81 1004.1
20260505183023 56 11 6.0 17.0 0.00 0.00 0.00 81 1004.1
20260505180829 56 0 7.0 16.0 0.00 0.00 0.00 81 1003.5
20260505175329 56 15 5.0 15.0 0.00 0.00 0.00 83 1003.3
20260505173828 56 8 7.0 15.0 0.00 0.00 0.00 83 1003.0
20260505172329 56 40 8.0 17.0 0.00 0.00 0.00 84 1003.1
20260505170829 56 34 8.0 20.0 0.00 0.00 0.00 84 1002.9
20260505170026 57 41 8.0 18.0 0.00 0.00 0.00 84 1002.6
20260505163829 58 27 6.0 17.0 0.00 0.00 0.00 84 1002.4
20260505162329 59 13 5.0 18.0 0.00 0.00 0.00 83 1002.1
20260505160829 60 40 5.0 19.0 0.00 0.00 0.00 83 1001.6
20260505152329 67 75 6.0 18.0 0.00 0.00 0.00 75 1000.8
20260505150829 70 23 4.0 10.0 0.00 0.00 0.00 80 1000.6
20260505123829 69 335 3.0 11.0 0.00 0.00 0.00 80 999.2
20260505122328 69 268 5.0 10.0 0.00 0.00 0.00 80 998.5
20260505120829 69 226 4.0 10.0 0.00 0.00 0.00 79 998.3
20260505115329 69 224 7.0 15.0 0.00 0.00 0.00 79 998.0
20260505113829 69 221 8.0 16.0 0.00 0.00 0.00 78 997.7
20260505112329 69 225 7.0 12.0 0.00 0.00 0.00 78 997.4
20260505110828 70 212 7.0 15.0 0.00 0.00 0.00 77 997.4
20260505102115 71 228 7.0 13.0 0.00 0.00 0.00 77 997.2
20260505100939 71 262 7.0 18.0 0.00 0.00 0.00 77 997.4
20260505093828 71 200 7.0 15.0 0.00 0.00 0.00 77 997.1
20260505092328 71 205 7.0 15.0 0.00 0.00 0.00 77 997.3
20260505091521 71 211 7.0 14.0 0.00 0.00 0.00 76 997.4
20260505090025 71 186 8.0 17.0 0.00 0.00 0.00 76 997.6
20260505083829 71 229 7.0 17.0 0.00 0.00 0.00 77 997.6
20260505082330 71 208 6.0 15.0 0.00 0.00 0.00 77 997.7
20260505080828 71 238 7.0 18.0 0.00 0.00 0.00 76 997.9
20260505075330 71 224 6.0 16.0 0.00 0.00 0.00 76 998.0
20260505073828 71 215 6.0 15.0 0.00 0.00 0.00 77 998.2
20260505072330 71 222 6.0 17.0 0.00 0.00 0.00 77 998.2
20260505071519 71 217 6.0 12.0 0.00 0.00 0.00 77 998.5
20260505065330 71 214 6.0 14.0 0.00 0.00 0.00 77 998.8
20260505063828 71 188 6.0 18.0 0.00 0.00 0.00 76 998.8
20260505062330 71 224 7.0 17.0 0.00 0.00 0.00 75 998.9
20260505060828 72 176 7.0 13.0 0.00 0.00 0.00 75 999.1
20260505055330 72 193 6.0 14.0 0.00 0.00 0.00 75 999.2
20260505053828 72 210 5.0 16.0 0.00 0.00 0.00 75 999.3
20260505052329 72 197 5.0 16.0 0.00 0.00 0.00 74 999.5
20260505051518 72 244 5.0 12.0 0.00 0.00 0.00 74 999.6
20260505040828 73 180 5.0 16.0 0.00 0.00 0.00 73 1000.0
20260505040032 73 147 6.0 13.0 0.00 0.00 0.00 73 1000.1
20260505033829 73 210 4.0 9.0 0.00 0.00 0.00 72 1000.0
20260505032329 73 190 4.0 12.0 0.00 0.00 0.00 71 1000.0
20260505031526 74 181 5.0 14.0 0.00 0.00 0.00 70 1000.0
20260505025328 74 178 6.0 15.0 0.00 0.00 0.00 69 1000.0
20260505023829 74 215 5.0 12.0 0.00 0.00 0.00 69 1000.0
20260505022329 75 212 4.0 11.0 0.00 0.00 0.00 68 999.9
20260505020828 75 187 4.0 11.0 0.00 0.00 0.00 67 999.7
20260505015328 76 65 4.0 11.0 0.00 0.00 0.00 66 999.9
20260505014519 76 110 3.0 11.0 0.00 0.00 0.00 64 999.9
20260505012329 77 184 5.0 12.0 0.00 0.00 0.00 62 999.7
20260505011515 77 213 4.0 16.0 0.00 0.00 0.00 61 999.9
20260505005329 78 160 5.0 11.0 0.00 0.00 0.00 60 1000.3
20260505003829 79 186 6.0 14.0 0.00 0.00 0.00 59 1000.2
20260505003027 79 216 6.0 16.0 0.00 0.00 0.00 58 1000.3
20260505001517 80 204 5.0 15.0 0.00 0.00 0.00 58 1000.3
20260504235329 81 209 7.0 16.0 0.00 0.00 0.00 57 1000.6
20260504233828 81 176 7.0 21.0 0.00 0.00 0.00 56 1000.8
20260504232327 82 192 7.0 16.0 0.00 0.00 0.00 55 1000.8
20260504230825 82 162 8.0 20.0 0.00 0.00 0.00 53 1000.9